カタログに戻る

TITAN 3C TRANSTAGE DEB

LostHEO
NORAD 34167·DEBRIS·🇺🇸 United States

打ち上げ Dec 21, 1965 から Cape Canaveral Space Force Station

Loading…

次のパス (今後24時間)

TLE

古いSource: Space-Track

元期: Oct 11, 2023, 06:42 UTC

1 34167U 65108DA  23284.27974355  .00001941  00000-0  10162-1 0  9998
2 34167  26.1573 167.1095 6398401 171.1820 210.4690  3.25999568 31065

AllMySatでTITAN 3C TRANSTAGE DEBをリアルタイム追跡

Download on the App Store